Date String (YYYY-MM-DD hh:mm:ss) UTC,Instrument flags,Ambient pressure (hPa),Sample flow (lpm),Bypass flow (lpm),Sample temperature (°C),Ambient temperature (°C),ASC tube jacket temperature (°C),LED temperature (°C),Box temperature (°C),Sample RH (%),Span deviation,Mass concentration (μg/m³),Mass concentration (μg/m³),Mass concentration (μg/m³)
DateTimeUTC,F1_M11,P_M11,Q1_M11,Q2_M11,T1_M11,T2_M11,T3_M11,T4_M11,T5_M11,U1_M11,ZSPAN_M11,X0_M11,X2_M11,X1_M11
2023-01-02 11:00:00,,0817.0,4.96,0.00,22.5,21.2,00.0,31.4,24.3,17.3,0000.4,0009.19,0006.80,0006.63
2023-01-02 11:01:00,,0817.0,4.97,0.00,22.5,21.2,00.0,31.4,24.3,17.6,0000.6,0009.21,0006.83,0006.66
2023-01-02 11:02:00,,0817.1,4.97,0.00,22.5,21.2,00.0,31.4,24.3,17.3,0000.5,0009.20,0006.85,0006.70
2023-01-02 11:03:00,,0817.1,4.97,0.00,22.5,21.2,00.0,31.4,24.3,17.2,0000.5,0009.24,0006.91,0006.76
2023-01-02 11:04:00,,0817.2,5.04,0.00,22.5,21.2,00.0,31.4,24.3,17.2,0000.5,0009.31,0006.98,0006.84
2023-01-02 11:05:00,,0817.0,4.99,0.00,22.5,21.2,00.0,31.4,24.3,17.2,0000.5,0009.32,0006.99,0006.86
2023-01-02 11:06:00,,0817.1,5.07,0.00,22.5,21.2,00.0,31.4,24.3,17.2,0000.5,0009.39,0007.07,0006.95
2023-01-02 11:07:00,,0817.0,5.01,0.00,22.4,21.2,00.0,31.4,24.3,17.2,0000.6,0009.46,0007.15,0007.03
2023-01-02 11:08:00,,0817.0,4.99,0.00,22.4,21.2,00.0,31.3,24.3,17.2,0000.8,0009.53,0007.22,0007.08
2023-01-02 11:09:00,,0817.0,5.01,0.00,22.4,21.2,00.0,31.3,24.2,17.2,0000.6,0009.64,0007.30,0007.16
2023-01-02 11:10:00,,0816.9,4.98,0.00,22.4,21.2,00.0,31.3,24.2,17.2,0000.3,0009.71,0007.35,0007.21
2023-01-02 11:11:00,,0817.1,4.97,0.00,22.4,21.2,00.0,31.3,24.2,17.2,0000.5,0009.74,0007.41,0007.27
2023-01-02 11:12:00,,0817.2,5.04,0.00,22.5,21.5,00.0,31.3,24.4,17.2,0000.8,0009.81,0007.50,0007.36
2023-01-02 11:13:00,,0817.1,5.03,0.00,22.6,22.3,00.0,31.3,24.6,17.1,0000.7,0009.98,0007.63,0007.48
2023-01-02 11:14:00,,0816.8,5.00,0.00,22.7,22.9,00.0,31.3,24.8,17.0,0000.7,0010.00,0007.70,0007.56
2023-01-02 11:15:00,,0816.9,4.97,0.00,22.7,22.6,00.0,31.4,24.7,16.9,0000.4,0010.03,0007.76,0007.63
2023-01-02 11:16:00,,0816.9,4.99,0.00,22.7,22.3,00.0,31.4,24.7,16.9,0000.3,0010.20,0007.91,0007.76
2023-01-02 11:17:00,,0816.9,5.02,0.00,22.7,22.0,00.0,31.4,24.6,16.9,0000.1,0010.27,0007.99,0007.85
2023-01-02 11:18:00,,0816.8,4.99,0.00,22.7,21.8,00.0,31.4,24.6,16.9,-000.2,0010.37,0008.10,0007.95
2023-01-02 11:19:00,,0816.9,5.03,0.00,22.7,21.7,00.0,31.5,24.6,16.8,-000.2,0010.52,0008.24,0008.11
2023-01-02 11:20:00,,0816.9,4.97,0.00,22.7,21.6,00.0,31.5,24.5,16.8,-000.2,0010.58,0008.34,0008.22
2023-01-02 11:21:00,,0817.3,4.96,0.00,22.7,21.5,00.0,31.5,24.5,16.8,-000.2,0010.66,0008.45,0008.33
2023-01-02 11:22:00,,0817.0,4.98,0.00,22.7,21.5,00.0,31.5,24.5,16.8,-000.2,0010.83,0008.61,0008.49
2023-01-02 11:23:00,,0816.9,5.05,0.00,22.7,21.4,00.0,31.5,24.5,16.8,-000.5,0010.93,0008.72,0008.61
2023-01-02 11:24:00,,0817.0,4.96,0.00,22.7,21.3,00.0,31.5,24.5,16.8,-000.5,0010.96,0008.80,0008.70
2023-01-02 11:25:00,,0817.0,5.02,0.00,22.7,21.3,00.0,31.5,24.4,16.8,-000.4,0011.10,0008.91,0008.79
2023-01-02 11:26:00,,0816.9,4.97,0.00,22.7,21.3,00.0,31.5,24.4,16.7,-000.3,0011.21,0009.00,0008.87
2023-01-02 11:27:00,,0817.3,4.99,0.00,22.6,21.3,00.0,31.5,24.4,16.7,0000.0,0011.26,0009.09,0008.96
2023-01-02 11:28:00,,0816.8,5.07,0.00,22.6,21.2,00.0,31.5,24.4,16.7,-000.1,0011.29,0009.15,0009.04
2023-01-02 11:29:00,,0816.8,4.98,0.00,22.6,21.2,00.0,31.5,24.4,16.7,0000.0,0011.37,0009.24,0009.11
2023-01-02 11:30:00,,0816.9,4.97,0.00,22.6,21.2,00.0,31.5,24.4,16.7,-000.1,0011.38,0009.28,0009.14
2023-01-02 11:31:00,,0816.8,4.97,0.00,22.6,21.1,00.0,31.5,24.4,16.7,-000.3,0011.36,0009.30,0009.17
2023-01-02 11:32:00,,0816.8,5.05,0.00,22.6,21.1,00.0,31.5,24.3,16.7,-000.0,0011.35,0009.32,0009.19
2023-01-02 11:33:00,,0816.9,5.07,0.00,22.6,21.1,00.0,31.4,24.3,16.7,-000.1,0011.28,0009.32,0009.20
2023-01-02 11:34:00,,0816.8,4.96,0.00,22.6,21.1,00.0,31.4,24.3,16.7,-000.3,0011.25,0009.32,0009.20
2023-01-02 11:35:00,,0816.8,4.96,0.00,22.6,21.1,00.0,31.4,24.3,16.7,0000.2,0011.20,0009.31,0009.19
2023-01-02 11:36:00,,0817.3,5.04,0.00,22.5,21.1,00.0,31.4,24.3,16.7,0000.3,0011.15,0009.30,0009.18
2023-01-02 11:37:00,,0817.0,4.99,0.00,22.5,21.1,00.0,31.4,24.3,16.7,0000.5,0011.12,0009.28,0009.17
2023-01-02 11:38:00,,0816.9,4.97,0.00,22.5,21.1,00.0,31.4,24.3,16.7,0000.4,0011.10,0009.26,0009.15
2023-01-02 11:39:00,,0816.8,4.99,0.00,22.5,21.0,00.0,31.4,24.3,16.7,0000.3,0011.06,0009.23,0009.12
2023-01-02 11:40:00,,0817.0,5.06,0.00,22.5,21.0,00.0,31.4,24.3,16.7,0000.4,0011.03,0009.22,0009.12
2023-01-02 11:41:00,,0817.0,4.99,0.00,22.5,21.0,00.0,31.4,24.2,16.7,0000.7,0011.04,0009.25,0009.15
2023-01-02 11:42:00,,0816.7,4.99,0.00,22.5,21.0,00.0,31.4,24.2,16.7,0000.7,0011.09,0009.30,0009.19
2023-01-02 11:43:00,,0816.6,5.00,0.00,22.4,21.0,00.0,31.3,24.2,16.7,0000.6,0011.12,0009.31,0009.20
2023-01-02 11:44:00,,0816.6,5.00,0.00,22.4,21.0,00.0,31.3,24.2,16.7,0000.7,0011.13,0009.32,0009.21
2023-01-02 11:45:00,,0816.5,4.99,0.00,22.5,21.5,00.0,31.3,24.4,16.7,0001.1,0011.14,0009.33,0009.22
2023-01-02 11:46:00,,0816.5,4.98,0.00,22.6,22.4,00.0,31.3,24.6,16.6,0000.6,0011.14,0009.33,0009.23
2023-01-02 11:47:00,,0816.6,5.01,0.00,22.7,23.0,00.0,31.3,24.8,16.5,0000.2,0011.13,0009.34,0009.26
2023-01-02 11:48:00,,0816.6,5.03,0.00,22.7,22.7,00.0,31.4,24.8,16.4,-000.0,0011.14,0009.36,0009.28
2023-01-02 11:49:00,,0816.8,5.05,0.00,22.7,22.4,00.0,31.4,24.7,16.4,-000.4,0011.20,0009.43,0009.34
2023-01-02 11:50:00,,0816.8,4.98,0.00,22.7,22.1,00.0,31.4,24.6,16.4,-000.3,0011.28,0009.52,0009.43
2023-01-02 11:51:00,,0817.0,4.99,0.00,22.7,21.9,00.0,31.5,24.5,16.4,-000.3,0011.33,0009.58,0009.50
2023-01-02 11:52:00,,0816.9,4.97,0.00,22.7,21.7,00.0,31.5,24.5,16.4,-000.9,0011.39,0009.63,0009.54
2023-01-02 11:53:00,,0816.9,5.01,0.00,22.7,21.6,00.0,31.5,24.5,16.4,-001.2,0011.41,0009.64,0009.55
2023-01-02 11:54:00,,0817.2,5.07,0.00,22.7,21.5,00.0,31.5,24.5,16.4,-001.2,0011.44,0009.69,0009.61
2023-01-02 11:55:00,,0817.2,4.99,0.00,22.7,21.4,00.0,31.5,24.5,16.4,-001.1,0011.48,0009.74,0009.66
2023-01-02 11:56:00,,0817.0,4.96,0.00,22.7,21.4,00.0,31.5,24.5,16.4,-001.1,0011.51,0009.79,0009.71
2023-01-02 11:57:00,,0816.9,5.07,0.00,22.7,21.3,00.0,31.5,24.5,16.4,-000.9,0011.56,0009.84,0009.76
2023-01-02 11:58:00,,0817.1,5.00,0.00,22.7,21.3,00.0,31.5,24.4,16.4,-000.9,0011.60,0009.88,0009.80
2023-01-02 11:59:00,,0816.7,4.96,0.00,22.6,21.2,00.0,31.5,24.4,16.4,-001.2,0011.64,0009.93,0009.84
